Pakanbaru, Indonesia

9:15 AM WIB on September 26, 2017 (GMT +0700)
Sultan Syarif Kasim Ii

Weather History for WIBB - January, 2013

Change the Weather History Date:

Saturday, January 5, 2013

  Actual Average Record
Temperature  
Mean Temperature 83 °F -  
Max Temperature 91 °F - - ()
Min Temperature 75 °F - - ()
Cooling Degree Days 18    
Growing Degree Days 33 (Base 50)    
Moisture  
Dew Point 74 °F    
Average Humidity 70    
Maximum Humidity 94    
Minimum Humidity 42    
Precipitation  
Precipitation 0.00 in - - ()
Sea Level Pressure  
Sea Level Pressure 29.71 in    
Wind  
Wind Speed 3 mph ()    
Max Wind Speed 10 mph    
Max Gust Speed -    
Visibility 5.5 miles    
Events      
T = Trace of Precipitation, MM = Missing Value Source: Averaged Metar Reports

Daily Weather History Graph

Daily Weather History Graph

Search for Another Location

Airport or City:

Trip Planner

Search our weather history database for the weather conditions in past years. The results will help you decide how hot, cold, wet, or windy it might be!

Date:

Astronomy

Jan. 05, 2013 Rise Set
Actual Time 6:16 AM WIB 6:22 PM WIB
Civil Twilight 5:54 AM WIB 6:44 PM WIB
Nautical Twilight 5:28 AM WIB 7:10 PM WIB
Astronomical Twilight 5:02 AM WIB 7:37 PM WIB
Moon No Moon Rise 12:06 PM WIB (1/5)
Length of Visible Light 12h 50m
Length of Day
12h 05m
Waning Gibbous, 50% of the Moon is Illuminated
Jan 5
Waning Gibbous
Jan 12
New
Jan 19
First Quarter
Jan 27
Full
Feb 3
Last Quarter

Hourly Weather History & Observations

Time (WIB) Temp. Heat Index Dew Point Humidity Pressure Visibility Wind Dir Wind Speed Gust Speed Precip Events Conditions
1:00 AM 78 °F - 74 °F 85% 29.74 in 4 mi Calm Calm - -   Partly Cloudy
4:00 AM 77 °F - 74 °F 89% 29.71 in 4 mi Calm Calm - -   Scattered Clouds
6:00 AM 77.0 °F - 75.2 °F 94% 29.71 in 4.3 mi Calm Calm - N/A   Partly Cloudy
7:00 AM 77 °F - 74 °F 90% 29.74 in 5 mi Calm Calm - -   Mostly Cloudy
8:00 AM 77.0 °F - 73.4 °F 89% 29.74 in 5.0 mi Calm Calm - N/A   Unknown
9:00 AM 80.6 °F 86.2 °F 75.2 °F 84% 29.77 in 5.0 mi Calm Calm - N/A   Unknown
10:00 AM 83 °F - 74 °F 66% 29.78 in 6 mi North 6.9 mph - -   Scattered Clouds
10:00 AM 84.2 °F 90.9 °F 73.4 °F 70% 29.77 in 6.2 mi Calm Calm - N/A   Partly Cloudy
11:00 AM 86.0 °F 95.1 °F 75.2 °F 70% 29.74 in 6.2 mi North 6.9 mph - N/A   Partly Cloudy
12:00 PM 87.8 °F 93.8 °F 71.6 °F 58% 29.74 in 6.2 mi North 9.2 mph - N/A   Scattered Clouds
1:00 PM 90 °F - 73 °F 48% 29.61 in 6 mi NW 10.4 mph - -   Partly Cloudy
2:00 PM 91.4 °F 100.1 °F 73.4 °F 55% 29.68 in 6.2 mi NNW 9.2 mph - N/A   Scattered Clouds
4:00 PM 90 °F - 70 °F 42% 29.68 in 6 mi WNW 8.1 mph - -   Scattered Clouds
4:00 PM 89.6 °F 96.2 °F 71.6 °F 55% 29.65 in 6.2 mi WNW 8.1 mph - N/A   Partly Cloudy
5:00 PM 91.4 °F 96.8 °F 69.8 °F 49% 29.65 in 6.2 mi WNW 6.9 mph - N/A   Partly Cloudy
6:00 PM 89.6 °F 98.2 °F 73.4 °F 59% 29.68 in 6.2 mi WNW 5.8 mph - N/A   Partly Cloudy
7:00 PM 86 °F - 74 °F 61% 29.71 in 6 mi North 5.8 mph - -   Scattered Clouds
7:00 PM 86.0 °F 95.1 °F 75.2 °F 70% 29.71 in 6.2 mi North 5.8 mph - N/A   Partly Cloudy
8:00 PM 84.2 °F 92.3 °F 75.2 °F 74% 29.71 in 5.0 mi North 5.8 mph - N/A   Unknown
9:30 PM 82.4 °F 89.5 °F 75.2 °F 79% 29.71 in 5.0 mi North 5.8 mph - N/A   Unknown
10:00 PM 82 °F - 76 °F 76% 29.73 in 5 mi Calm Calm - -   Scattered Clouds